Home   Weather   Nashville   Past weeks
Flag for USA

Past Weather in Nashville, Tennessee, USA — Yesterday and Last 2 Weeks

Now
72 °F

Broken clouds.


Feels Like: 76 °F
Forecast: 72 / 41 °F
Wind: No wind

Location: Nashville International Airport

Current Time: Apr 3, 2020 at 3:52:33 pm

Latest Report: Apr 3, 2020 at 2:53 pm


Visibility: 10 mi

Pressure: 30.01 "Hg

Humidity: 28%

Dew Point: 37 °F

Location of NashvilleLocation

Past Weather in Nashville — Graph

°F

Nashville Temperature Yesterday

Maximum temperature yesterday: 67 °F (at 4:53 pm)
Minimum temperature yesterday: 39 °F (at 4:53 am)
Average temperature yesterday: 53 °F

High & Low Weather Summary for the Past Weeks

 TemperatureHumidityPressure
High84 °F (Mar 27, 4:53 pm)93% (Mar 23, 5:19 am)30.45 "Hg (Mar 23, 5:19 am)
Low39 °F (Mar 22, 6:53 am)23% (Mar 29, 6:53 pm)29.72 "Hg (Mar 24, 5:53 pm)
Average59 °F69%30.04 "Hg
* Reported Mar 19 1:53 pm — Apr 3 1:53 pm, Nashville. Weather by CustomWeather, © 2020

Note: Actual official high and low records may vary slightly from our data, if they occured in-between our weather recording intervals... More about our weather records

Nashville Weather History for the Previous 24 Hours

Scroll right to see more
 ConditionsComfort  
Time TempWeatherWind HumidityBarometerVisibility
1:53 pm
Fri, Apr 3
71 °FBroken clouds.7 mph35%30.03 "Hg10 mi
12:53 pm71 °FBroken clouds.6 mph30%30.05 "Hg10 mi
11:53 am67 °FBroken clouds.7 mph37%30.08 "Hg10 mi
10:53 am66 °FPartly sunny.3 mph40%30.10 "Hg10 mi
9:53 am61 °FPartly sunny.5 mph48%30.10 "Hg10 mi
8:53 am52 °FPartly sunny.No wind75%30.10 "Hg10 mi
7:53 am49 °FPartly sunny.No wind77%30.11 "Hg9 mi
6:53 am44 °FScattered clouds.3 mph79%30.09 "Hg10 mi
5:53 am45 °FPassing clouds.No wind76%30.10 "Hg10 mi
4:53 am43 °FClear.5 mph86%30.08 "Hg10 mi
3:53 am45 °FClear.No wind76%30.05 "Hg10 mi
2:53 am46 °FClear.No wind77%30.05 "Hg10 mi
1:53 am46 °FClear.No wind77%30.05 "Hg10 mi
12:53 am50 °FClear.No wind63%30.06 "Hg10 mi
11:53 pm
Thu, Apr 2
53 °FClear.No wind55%30.06 "Hg10 mi
10:53 pm54 °FClear.6 mph53%30.07 "Hg10 mi
9:53 pm57 °FClear.5 mph51%30.08 "Hg10 mi
8:53 pm57 °FClear.No wind49%30.08 "Hg10 mi
7:53 pm60 °FPassing clouds.No wind42%30.07 "Hg10 mi
5:53 pm66 °FSunny.3 mph36%30.06 "Hg10 mi
4:53 pm67 °FPassing clouds.5 mph33%30.06 "Hg10 mi
3:53 pm65 °FPassing clouds.3 mph36%30.06 "Hg10 mi
Weather by CustomWeather, © 2020

See weather overview

Advertising